Location: Eksmorra
(53.0537°N, 5.4660°E)
Time: 18:16:46
(UTC+00:00)

Daily predictions for brighter satellites

Satellite Brightness Start Highest point End
(mag) Time Altitude Azimuth Time Altitude Azimuth Time Altitude Azimuth
Meteor 2-4 Rocket 3.9 17:50:50 10° N 17:56:43 73° ENE 18:02:39 10° SSE
Nadezhda 3 Rocket 4.2 17:52:58 10° NNW 17:59:23 85° W 18:05:45 10° S
Cosmos 2322 Rocket 2.3 17:54:58 10° SSW 18:00:36 87° WNW 18:06:17 10° NNE
Helios 1A Rocket 3.3 17:57:40 10° SE 18:01:30 43° ENE 18:05:21 10° N
Lacrosse 4 Rocket 2.6 17:58:12 10° SSE 18:01:50 26° ESE 18:05:33 10° ENE
CZ-2D R/B 4.2 17:58:50 10° S 18:02:35 54° W 18:06:22 10° NNW
GP-B 3.6 17:59:15 10° SSE 18:03:23 40° E 18:07:33 10° NNE
Cosmos 1461 4.4 17:59:45 10° WSW 18:04:18 42° NW 18:08:47 10° NE
Cosmos 1992 Rocket 4.1 18:00:24 10° SSW 18:05:39 89° ESE 18:10:56 10° NNE
ERBS 3.0 18:02:29 10° W 18:05:41 45° N 18:08:53 10° ENE
ARGOS 3.2 18:00:23 10° SSE 18:05:45 64° ENE 18:11:09 10° N
Cosmos 2074 Rocket 4.4 18:00:56 10° SSW 18:07:11 70° WNW 18:13:26 10° N
CZ-4B R/B 1.1 18:06:01 10° NNE 18:09:06 88° ESE 18:12:12 10° SSW
Cosmos 1869 Rocket 4.4 18:06:02 10° SSE 18:09:50 29° E 18:13:39 10° NNE
CZ-4 R/B 1.4 18:07:09 10° SSE 18:11:03 83° WSW 18:15:04 10° NNW
Cosmos 2219 Rocket 2.9 18:06:18 10° SSE 18:11:11 32° ESE 18:16:08 10° NE
FALCON 9 DEB 3.6 18:10:13 10° W 18:13:18 50° SSW 18:16:23 10° SE
ERS-2 2.7 18:10:11 10° NNE 18:13:34 34° E 18:16:55 10° SSE
CZ-2C R/B 3.2 18:08:45 10° NNE 18:13:46 36° E 18:18:39 10° SSE
Cosmos 2154 Rocket 4.1 18:07:49 10° S 18:14:02 89° WNW 18:20:18 10° N
Cosmos 1689 Rocket 2.7 18:12:30 10° NNE 18:15:11 33° E 18:17:50 10° SSE
Cosmos 1378 3.9 18:13:43 10° N 18:17:07 31° ENE 18:20:27 10° SE
Cosmos 1238 Rocket 4.1 18:15:26 10° SE 18:17:57 17° E 18:20:14 10° NE
USA 305 2.9 18:14:16 10° WNW 18:18:35 89° NNE 18:22:40 11° ESE
H-2A R/B 3.4 18:15:41 10° N 18:19:33 41° WNW 18:23:26 10° SW
SL-08 RB Rocket 3.8 18:16:08 10° SSE 18:20:37 59° ENE 18:25:10 10° N
FALCON 9 DEB 3.6 18:19:39 10° W 18:22:47 51° SSW 18:25:51 10° SE
NOSS 3-2 (A) 4.4 18:19:21 10° SSE 18:23:42 23° ESE 18:28:29 10° ENE
HJ-1C 3.3 18:21:49 10° SSE 18:25:07 83° E 18:28:26 10° NNW
COSMOS 2428 3.3 18:20:49 10° S 18:25:54 35° ESE 18:31:01 10° NE
SL-16 R/B 3.1 18:23:29 10° SW 18:29:00 51° NW 18:34:34 10° NNE
SKYMED 2 4.4 18:26:15 10° N 18:30:31 55° WNW 18:34:45 10° SSW
Cosmos 1470 Rocket 4.2 18:27:17 10° SSW 18:31:41 61° WNW 18:36:05 10° N
Cosmos 2369 Rocket 4.0 18:28:46 10° NNW 18:32:20 17° NNE 18:35:53 10° ENE
USA 307 2.9 18:28:02 10° WNW 18:32:20 87° SSW 18:35:52 15° ESE
USA 306 2.9 18:29:17 10° WNW 18:33:37 85° SSW 18:37:06 15° ESE
SL-8 Rocket 4.0 18:29:08 10° S 18:35:13 60° E 18:41:17 10° NNE
Cosmos 1898 Rocket 4.2 18:30:26 10° NNW 18:35:13 35° NE 18:39:11 14° ESE
Cosmos 1066 Rocket 4.3 18:29:43 10° N 18:35:26 62° ENE 18:41:13 10° SSE
CENTAUR R/B 3.6 18:31:23 10° SSE 18:35:36 20° ESE 18:40:19 10° ENE
ATLAS CENTAUR R/B 1.5 18:33:01 10° SW 18:36:39 62° NW 18:40:22 10° NE
Cosmos 1743 3.9 18:38:46 10° SE 18:41:46 21° E 18:44:47 10° NE
Cosmos 1703 Rocket 4.2 18:37:31 10° NNW 18:41:52 60° W 18:46:09 10° S
USA 308 2.9 18:38:51 10° WNW 18:43:09 81° SSW 18:46:15 18° ESE
Cosmos 1666 2.5 18:39:40 10° S 18:43:24 81° E 18:47:11 10° NNE
Meteor 1-23 Rocket 4.3 18:40:19 10° N 18:45:51 58° ENE 18:51:26 10° SSE
Cosmos 2322 3.7 18:41:00 10° SSW 18:46:40 68° ESE 18:52:22 10° NE
CSL-04 Rocket 3.8 18:41:13 10° SSE 18:46:45 81° WSW 18:52:16 10° NNW
Okean-O 3.8 18:45:43 10° S 18:49:58 45° W 18:54:16 10° NNW
ASTEX 1 3.8 18:45:29 10° NNE 18:50:06 40° E 18:54:41 10° SSE
Cosmos 1933 Rocket 4.3 18:47:48 10° SSW 18:52:06 56° WNW 18:56:28 10° N
Cosmos 1674 Rocket 4.3 18:49:21 10° N 18:53:15 31° ENE 18:55:15 21° ESE
Cosmos 2366 rocket 4.0 18:47:12 10° S 18:53:28 67° E 18:59:47 10° NNE
H-2A R/B 3.5 18:48:58 10° S 18:54:09 44° W 18:59:20 10° NNW
Cosmos 990 Rocket 4.2 18:50:49 10° NNW 18:55:54 52° ENE 18:59:40 18° SE
SJ-6B 2.9 18:52:49 10° SSE 18:56:48 55° ENE 19:00:43 10° N
Cosmos 2221 Rocket 3.6 18:53:00 10° N 18:57:23 58° ENE 19:01:47 10° SSE
Ariane Rocket 3.1 18:55:34 10° SE 19:00:26 54° ENE 19:05:25 10° N
USA 186 1.0 18:59:36 23° SSE 19:01:02 78° ENE 19:03:44 10° N
ARIANE 5 R/B 4.4 19:01:45 15° ENE 19:02:14 15° NE 19:04:50 10° NNE
OBJECT-B 0.9 19:02:10 26° SE 19:03:42 51° ENE 19:06:51 10° N
NOSS 3-2 (C) 4.2 19:00:41 10° SSE 19:05:19 26° ESE 19:08:10 19° ENE
Meteor 1-11 Rocket 3.6 19:01:42 10° S 19:07:21 78° E 19:12:55 10° NNE
Cosmos 1378 Rocket 4.2 19:03:37 10° N 19:07:47 36° ENE 19:09:21 28° ESE
SAR-Lupe-4 4.2 19:07:19 10° N 19:10:51 59° WNW 19:14:23 10° SSW
Cosmos 2360 Rocket 3.1 19:05:37 10° SW 19:11:07 51° NW 19:16:42 10° NNE
Cosmos 1943 Rocket 3.2 19:08:07 10° NNW 19:13:08 31° NE 19:15:26 23° E
SJ 16-02 1.6 19:10:40 10° NNW 19:15:05 70° WSW 19:19:19 11° SSE
Cosmos 1727 Rocket 3.9 19:09:02 10° N 19:15:16 88° ENE 19:21:30 10° S
DMSP B5D2-2 4.0 19:11:05 10° NNE 19:16:20 71° ESE 19:21:32 10° S
Cosmos 2278 Rocket 2.3 19:11:35 10° NNW 19:17:18 80° WSW 19:22:11 14° SSE
Cosmos 2333 4.4 19:12:00 10° SW 19:17:40 73° NW 19:23:27 10° NNE
Cosmos 1821 Rocket 4.2 19:11:52 10° SSE 19:17:44 47° E 19:23:34 10° NNE
Cosmos 2237 Rocket 2.7 19:13:12 10° S 19:18:18 35° ESE 19:23:26 10° NE
Okean 3 4.4 19:15:04 10° NNW 19:19:13 51° W 19:23:22 10° S
Cosmos 1544 3.1 19:15:50 10° S 19:19:23 52° E 19:22:59 10° NNE
SL-4 R/B 4.3 19:19:05 10° WSW 19:20:31 12° SW 19:21:56 10° SSW
MOS 1 4.2 19:15:42 10° SSE 19:21:20 78° ENE 19:27:02 10° NNW
Cosmos 1536 2.8 19:17:48 10° SSW 19:21:48 82° WNW 19:25:48 10° N
SeaSat 1 2.4 19:18:25 10° NE 19:23:20 63° ESE 19:28:13 10° SSW
USA 81 4.2 19:18:23 10° SSE 19:23:28 51° E 19:28:33 10° NNE
SWAS 4.4 19:19:30 10° SSW 19:23:46 66° ESE 19:28:05 10° NE
SPOT 3 Rocket 3.8 19:24:24 30° ESE 19:26:35 49° ENE 19:31:37 10° N
Cosmos 2218 Rocket 4.2 19:21:26 10° SSW 19:27:50 75° WNW 19:34:15 10° N
SME Rocket 4.0 19:23:03 10° NNE 19:30:56 68° ESE 19:36:02 10° S
Meteor 2-20 Rocket 4.3 19:25:14 10° N 19:31:23 81° ENE 19:37:09 12° SSE
Cosmos 1934 Rocket 4.5 19:30:06 31° ESE 19:31:41 36° E 19:37:12 10° NNE
Resurs 01 Rocket 1.9 19:31:41 42° ESE 19:32:32 48° ENE 19:36:47 10° N
USA 234 3.8 19:33:09 31° ESE 19:34:31 33° SE 19:40:19 10° SSW
SPOT 1/Viking Rocket 4.3 19:33:55 32° ENE 19:34:38 33° ENE 19:39:15 10° N
Gbstr 26 Del rocket 3.9 19:31:36 10° W 19:36:09 51° SSW 19:38:19 32° SE
Cosmos 1937 Rocket 3.4 19:32:52 10° NNW 19:38:03 68° ENE 19:39:49 40° SE
Cosmos 2123 Rocket 4.1 19:32:16 10° N 19:38:26 55° ENE 19:41:02 33° SE
Cosmos 2333 Rocket 2.6 19:32:59 10° SW 19:38:40 65° NW 19:44:24 10° NNE
Lacrosse 4 Rocket 2.1 19:35:51 10° SW 19:40:15 58° NW 19:44:43 10° NNE
ERBS 2.9 19:39:03 10° WNW 19:42:15 45° N 19:42:16 45° N
IGS 5A 3.8 19:44:26 45° ENE 19:44:26 45° ENE 19:48:12 10° N
USA 238 DEB 3.6 19:38:24 10° SSW 19:44:50 58° SE 19:51:37 10° NE
SPOT 5 4.4 19:45:45 19° NE 19:45:45 19° NE 19:48:12 10° N
USA 238 3.6 19:38:31 10° SSW 19:44:57 58° SE 19:51:44 10° NE
Cosmos 1842 3.1 19:41:13 10° N 19:45:09 67° ENE 19:45:12 67° E
Cosmos 2322 Rocket 4.3 19:40:50 10° W 19:45:27 25° NW 19:50:06 10° NNE
ERS-2 4.4 19:43:54 10° N 19:46:59 26° WNW 19:50:04 10° WSW
Resurs 1-3 3.6 19:45:27 34° S 19:47:19 84° WSW 19:51:46 10° NNW
CZ-2C R/B 3.8 19:49:00 10° N 19:54:11 45° WNW 19:59:15 10° SW
Cosmos 2219 Rocket 2.8 19:49:23 10° SW 19:54:54 57° NW 20:00:29 10° NNE
Cosmos 1238 Rocket 3.8 19:53:35 10° SSW 19:57:16 41° WNW 20:00:27 10° N
USA 305 3.8 19:54:22 10° WNW 19:58:21 38° SSW 19:58:46 37° SSW
Terra 3.5 20:00:53 20° NE 20:00:53 20° NE 20:03:30 10° N
ERS-1 Rocket 4.0 20:03:06 31° NE 20:03:06 31° NE 20:06:57 10° N
Cosmos 1980 3.5 19:57:15 10° SSW 20:02:52 73° ESE 20:08:31 10° NE
Cosmos 1733 Rocket 3.3 20:00:17 10° SSW 20:04:36 67° WNW 20:09:00 10° N
COSMOS 2428 3.4 20:04:26 10° SW 20:10:00 54° NW 20:15:37 10° NNE
Meteor 2-9 Rocket 3.9 20:10:29 66° SE 20:10:54 69° E 20:16:13 10° NNE
USA 307 4.0 20:08:11 10° W 20:12:00 34° SW 20:12:00 34° SW
USA 306 4.1 20:09:27 10° W 20:13:13 32° SW 20:13:13 32° SW
NOSS 3-2 (A) 3.3 20:07:45 10° SW 20:13:33 89° SE 20:20:23 10° NE
Spot 2 Rocket 3.7 20:14:35 54° NE 20:14:35 54° NE 20:19:18 10° N
Cosmos 1605 Rocket 4.3 20:15:58 48° ENE 20:15:58 48° ENE 20:21:37 10° NNE
ATLAS CENTAUR R/B 3.5 20:13:28 10° WNW 20:16:12 19° NNW 20:17:48 15° NNE
Cosmos 1743 4.0 20:13:36 10° SW 20:17:17 41° WNW 20:21:02 10° N
Cosmos 1898 Rocket 4.2 20:12:28 10° NW 20:17:30 49° WSW 20:19:30 32° SSW
Cosmos 2369 Rocket 2.7 20:12:30 10° NNW 20:17:52 44° NE 20:18:00 44° NE
USA 308 4.3 20:19:04 10° W 20:22:24 29° SW 20:22:24 29° SW
NOSS 0 Rocket 4.0 20:17:09 10° SW 20:23:18 78° NW 20:29:31 10° NNE
CENTAUR R/B 2.4 20:18:54 10° SW 20:24:59 78° SE 20:32:21 10° NE
Landsat 7 4.0 20:34:36 70° W 20:34:36 70° W 20:39:12 10° NNW
Cosmos 372 Rocket 4.0 20:30:34 10° NNW 20:35:35 78° W 20:35:35 78° W
OBJECT-B 3.8 20:35:13 12° WSW 20:36:14 13° W 20:37:53 10° WNW
ARIANE 5 R/B 3.4 20:39:17 47° N 20:39:17 47° N 20:42:34 10° NNW
ATLAS 5 CENTAUR R/B 3.9 20:37:54 10° WNW 20:40:39 20° NNW 20:40:39 20° NNW
Cosmos 1447 Rocket 4.4 20:35:40 10° N 20:41:51 74° ENE 20:41:51 74° ENE
Cosmos 2150 Rocket 4.4 20:37:46 10° NNW 20:42:31 59° NNE 20:42:31 59° NNE
Cosmos 2297 3.8 20:38:38 10° NW 20:44:19 66° WSW 20:44:37 65° SW
Cosmos 1763 Rocket 3.8 20:39:33 10° SW 20:44:51 68° WNW 20:50:10 10° NNE
MetOp-B 4.4 20:45:40 59° SW 20:46:07 61° WSW 20:51:27 10° NNW
In-Cosmos 22 4.2 20:42:58 10° NNW 20:48:36 82° WNW 20:48:36 82° WNW
Cosmos 1975 Rocket 4.2 20:46:57 10° NNW 20:49:55 41° NNW 20:49:55 41° NNW
Cosmos 1125 Rocket 4.2 20:47:49 10° NNW 20:51:54 48° N 20:51:54 48° N
USA 281 3.8 20:54:08 43° NE 20:54:12 43° NE 21:00:20 10° NNW
NOSS 3-2 (C) 3.4 20:49:33 10° SW 20:55:23 84° NW 20:55:56 75° NNE
Cosmos 1943 Rocket 2.4 20:51:45 10° NW 20:56:57 69° WNW 20:56:57 69° WNW
SeaSat 1 4.1 20:56:15 10° NNE 21:00:37 32° NW 21:04:58 10° WSW
Cosmos 2237 Rocket 2.8 20:56:37 10° SW 21:02:12 54° NW 21:07:49 10° NNE
Resurs 01 Rocket 3.5 21:09:15 25° W 21:09:16 25° W 21:12:55 10° NW
SPOT 1/Viking Rocket 4.4 21:14:32 45° WNW 21:14:32 45° WNW 21:18:56 10° NNW
USA 234 3.9 21:20:31 43° SW 21:20:31 43° SW 21:24:44 10° WSW
Lacrosse 4 Rocket 4.1 21:16:41 10° WNW 21:19:52 18° NNW 21:22:05 14° N
Cosmos 2333 Rocket 4.5 21:19:43 10° W 21:24:04 22° NNW 21:28:28 10° NNE
SL-16 R/B 4.3 21:29:37 16° NNE 21:29:37 16° NNE 21:30:44 10° NNE
USA 238 DEB 4.3 21:29:24 10° WSW 21:35:58 54° NNW 21:42:54 10° NE
USA 238 4.3 21:29:30 10° WSW 21:36:03 54° NNW 21:43:00 10° NE
Terra 3.7 21:39:46 28° NNW 21:39:46 28° NNW 21:42:00 10° NNW
Cosmos 2369 Rocket 3.8 21:56:39 10° NW 21:59:48 30° WNW 21:59:48 30° WNW
CENTAUR R/B 3.6 22:09:59 10° W 22:16:17 47° NNW 22:23:45 10° NE
USA 281 4.3 22:40:59 38° NW 22:40:59 38° NW 22:45:04 10° NNW
Cosmos 1980 Rocket 4.3 22:57:25 10° NNW 23:00:19 21° N 23:00:19 21° N
SL-16 R/B 4.3 23:11:26 22° NNW 23:11:26 22° NNW 23:14:38 10° NNE
ATLAS 3B R/B 4.2 23:35:01 28° NNE 23:35:01 28° NNE 23:38:13 10° NE
SL-16 R/B 4.5 23:43:23 10° NNW 23:46:41 20° NNE 23:46:41 20° NNE
